Simultaneous Nadir Overpasses (SNOs) Predictions

Prediction of SNOs between LANDSAT-8 and METOP-A Satellite Orbit:

Table of predicted SNOs for the next 14.0 days since TLE Epoch: 5/9/2020
Index Date (LANDSAT-8) Time (LANDSAT-8) Lat,Lon (LANDSAT-8) SZA (LANDSAT-8 ) Date (METOP-A) Time (METOP-A) Lat,Lon (METOP-A) SZA (METOP-A ) Distance(km) Time Diff (sec)
1 05/10/2020 19:39:47 -81.49, 110.83 113.65 05/10/2020 19:39:38 -81.49, 110.88 113.65 0.77 9
2 05/10/2020 20:29:13 81.49, -81.46 66.35 05/10/2020 20:30:18 81.48, -81.53 66.37 1.41 65
3 05/13/2020 14:24:34 81.48, 9.43 65.64 05/13/2020 14:23:20 81.49, 9.61 65.63 3.22 74
4 05/13/2020 15:13:59 -81.50, 177.44 114.32 05/13/2020 15:13:59 -81.49, 177.34 114.34 1.93 0
5 05/13/2020 16:03:26 81.48, -15.28 65.62 05/13/2020 16:04:39 81.48, -15.10 65.68 2.97 73
6 05/16/2020 09:58:46 81.48, 75.99 65.00 05/16/2020 09:57:41 81.49, 76.03 64.97 0.89 65
7 05/16/2020 10:48:13 -81.48,-116.37 115.02 05/16/2020 10:48:21 -81.48,-116.21 114.99 2.61 8
8 05/19/2020 05:32:59 81.49, 142.53 64.39 05/19/2020 05:32:03 81.49, 142.43 64.36 1.56 56
9 05/19/2020 06:22:26 -81.49, -49.81 115.62 05/19/2020 06:22:43 -81.48, -49.78 115.61 0.85 17
10 05/22/2020 01:07:12 81.49,-150.95 63.83 05/22/2020 01:06:24 81.48,-150.78 63.82 3.08 48




NCC Satellite Simultaneous Nadir Overpasses (SNOs) Prediction Service
